Flag for El Salvador Weather past 2 weeks in Santa Ana, El Salvador

Now
79 °F

Passing clouds.


Feels Like: 82 °F
Forecast: N/A
Wind: 2 mph from South

Location: San Salvador / Ilopango

Current Time: Dec 20, 2014 at 5:30:19 PM

Latest Report: Dec 20, 2014 at 4:50 PM


Visibility: N/A

Pressure: 29.95 "Hg

Humidity: 79%

Dew point: 72 °F

Location of Santa AnaLocation

Historic Weather in Santa Ana — Graph

°F

Santa Ana temperature yesterday

Maximum temperature yesterday: 86 °F (at 11:50 AM)
Minimum temperature yesterday: 64 °F (at 5:50 AM)
Average temperature yesterday: 75 °F

Past Weeks' High & Low Weather Summary

 TemperatureHumidityPressure
High88 °F (Dec 5, 3:50 PM)100% (Dec 15, 6:50 AM)30.12 "Hg (Dec 15, 6:50 AM)
Low61 °F (Dec 11, 5:50 AM)34% (Dec 5, 5:50 PM)29.83 "Hg (Dec 14, 12:50 PM)
Average75 °F71%30.02 "Hg
* Reported Dec 5 3:50 PM — Dec 20 3:50 PM, Santa Ana, Weather by CustomWeather, © 2014

Note: Actual official high and low records may vary slightly from our data, if they occured in-between our weather recording intervals... More about our weather records

Advertising

Santa Ana weather history for previous 24 hours

 ConditionsComfort  
Time TempWeatherWind HumidityBarometerVisibility
3:50 PM
Dec 20
84 °FPassing clouds.2 mph66%29.95 "HgN/A
2:50 PM84 °FScattered clouds.2 mph66%29.95 "HgN/A
1:50 PM88 °FPartly sunny.5 mph62%29.95 "HgN/A
12:50 PM86 °FPartly sunny.5 mph62%29.98 "HgN/A
11:50 AM82 °FScattered clouds.6 mph66%30.04 "HgN/A
10:50 AM81 °FScattered clouds.2 mph70%30.07 "HgN/A
9:50 AM73 °FPartly sunny.2 mph83%30.04 "HgN/A
8:50 AM72 °FPartly sunny.7 mph88%30.04 "HgN/A
7:50 AM70 °FPassing clouds.6 mph88%30.01 "HgN/A
6:50 AM66 °FPassing clouds.3 mph100%29.98 "HgN/A
5:50 AM66 °FClear.3 mph52%29.98 "Hg10 mi
11:50 PM
Dec 19
70 °FClear.No wind94%29.98 "Hg10 mi
10:50 PM70 °FClear.No wind94%29.98 "Hg10 mi
9:50 PM72 °FClear.No wind88%29.98 "Hg10 mi
8:50 PM70 °FClear.No wind94%29.98 "Hg10 mi
7:50 PM72 °FClear.3 mph88%29.95 "Hg10 mi
6:50 PM73 °FClear.6 mph83%29.95 "Hg10 mi
5:50 PM75 °FClear.7 mph78%29.92 "Hg10 mi
Weather by CustomWeather, © 2014

See weather overviewHow to use our weather pages